Location: Blythe
(33.2930°N, 82.2020°W)
Time: 10:24:49
(UTC-05:00)

Hubble Space Telescope - Visible Passes

Search period start: 18 December 2014 00:00
Search period end: 28 December 2014 00:00
Orbit: 545 x 549 km, 28.5° (Epoch: 17 December)

Date Brightness Start Highest point End Pass type
(mag) Time Alt. Az. Time Alt. Az. Time Alt. Az.
18 Dec 1.7 18:21:50 10° WSW 18:25:47 42° S 18:29:16 13° ESE visible
18 Dec 3.4 20:03:19 10° WSW 20:04:48 18° WSW 20:04:48 18° WSW visible
19 Dec 1.9 18:14:07 10° WSW 18:18:01 40° S 18:21:56 10° ESE visible
19 Dec 3.2 19:55:45 10° WSW 19:57:46 19° SW 19:57:46 19° SW visible
20 Dec 2.1 18:06:24 10° WSW 18:10:15 37° S 18:14:06 10° ESE visible
20 Dec 3.1 19:48:18 10° WSW 19:50:51 18° SSW 19:50:51 18° SSW visible
21 Dec 2.3 17:58:42 10° WSW 18:02:28 33° S 18:06:14 10° SE visible
21 Dec 3.3 19:41:00 10° WSW 19:43:22 15° SSW 19:44:02 14° SSW visible
22 Dec 2.6 17:51:02 10° WSW 17:54:40 29° SSW 17:58:18 10° SE visible
22 Dec 3.6 19:34:07 10° SW 19:35:30 11° SSW 19:36:53 10° S visible
